THORAD AGENA D DEB, 42514

Orbit data source: Space-Track

THORAD AGENA D DEB, 42514 is space debris in SSO originally from a launch on Wed, 08 Apr 1970 UTC launched from the Air Force Western Test Range (AFWTR). Debris objects in space refer to the collection of defunct objects orbiting the Earth. Examples of debris include non-operational satellites, rocket bodies, and fragments generated from explosions, collisions, or faulty payload assembly.

Loading next visibility...
Identifier
42514, 1970-025RU
Orbit
SSO
Country
Flag of USUS
Related business
Manufacturer
Unknown
Mission
Spacecraft
Bus & Motor
Unknown
Mass
Unknown
Launch date (UTC)
1970-04-08 (56 years ago)
Launch vehicle
Unknown
Launch site
Air Force Western Test Range (AFWTR)
Object type
Payload
Rocket body
Debris
Shape & HBR
Unknown shape, 0.1 m
Radar Cross Section
Small (<0.1 m²)

Expand to show TLE details & history
Last TLE update: 3 days ago

TLE from 3 days ago
0 THORAD AGENA D DEB
1 42514U 70025RU  26254.14772920  .00000142  00000-0  38507-3 0  9994
2 42514  99.3995   8.3405 0185137 105.9842 256.1759 13.23414726617974
Epoch: 2026-09-11T03:32Z
TLE epoch observation values (Epoch: 2026-09-11T03:32:43.802Z)
Latitude
-0°
Longitude
-35.01726°
Altitude
1,210.294 km
Speed
7.232 km/s
True Right ascension
00h 33m 21s
True Declination
0° 00' 00"
Sunlit
Object was in full shadow at epoch
Visualization orbit readout
Latitude
Unknown
Longitude
Unknown
Altitude
Unknown
Speed
Unknown
Apparent Right ascension
Unknown
Apparent Declination
Unknown
Sunlit
N/A
Visualization observer readout
Local Sidereal Time
01:14:32
Azimuth
Unknown
Elevation
Unknown
Doppler factor
Unknown
Orbital elements
Apogee altitude
1,308.752 km
Perigee altitude
1,029.3 km
Semi-major axis
7,547.163 km
Eccentricity
0.01851
Inclination
99.3995°
RAAN
8.3405°
Arg. of periapsis
105.9842°
True anomaly
254.12761°
Mean anomaly
256.1759°
Eccentric anomaly
255.15057°
Mean motion
3.3103 °/min
Orbital period
108.75 mins
BSTAR
0.00038507
Loading maneuver chart data...
Computing Atmospheric mass density...

Documentation

Showing up to 5 results
|